Location: Unspecified
(0.0000°N, 0.0000°E)
Time: 20:59:29
(UTC+00:00)

Vanguard 2 - Visible Passes

Search period start: 16 April 2026 00:00
Search period end: 26 April 2026 00:00
Orbit: 554 x 2895 km, 32.9° (Epoch: 16 April)

Date Brightness Start Highest point End Pass type
(mag) Time Alt. Az. Time Alt. Az. Time Alt. Az.
16 Apr 11.4 03:03:56 14° S 03:06:08 15° S 03:12:46 10° SE visible
16 Apr 10.5 05:10:13 10° SSW 05:20:21 27° SSE 05:27:19 10° ESE visible
16 Apr 9.6 18:12:50 10° NW 18:20:58 51° NE 18:34:08 10° ESE visible
16 Apr 10.0 20:20:35 10° WNW 20:31:27 60° SSW 20:35:49 47° SSE visible
16 Apr 11.4 22:33:24 10° WSW 22:36:46 17° WSW 22:36:46 17° WSW visible
17 Apr 11.3 03:15:04 15° S 03:19:15 17° S 03:26:42 10° SE visible
17 Apr 10.2 05:21:32 10° SW 05:32:48 35° SSE 05:40:06 10° E visible
17 Apr 9.4 18:24:22 10° NW 18:32:39 66° NE 18:46:17 11° ESE visible
17 Apr 10.2 20:32:55 10° W 20:43:40 48° SSW 20:47:14 42° S visible
17 Apr 11.6 22:47:00 10° WSW 22:48:11 12° WSW 22:48:11 12° WSW visible
18 Apr 11.1 03:26:17 16° SSW 03:32:12 21° SSE 03:40:25 10° ESE visible
18 Apr 9.9 05:33:00 10° SW 05:45:07 46° SSE 05:52:34 10° E visible
18 Apr 9.3 18:36:04 10° NW 18:44:25 85° NE 18:57:40 12° SE visible
18 Apr 10.5 20:45:29 10° W 20:56:01 39° SSW 20:58:37 37° S visible
19 Apr 11.7 01:36:36 11° SSE 01:36:36 11° SSE 01:37:22 10° SE visible
19 Apr 10.9 03:37:33 17° SSW 03:45:00 25° SSE 03:53:50 10° ESE visible
19 Apr 9.4 18:47:55 10° WNW 18:56:20 76° SW 19:09:02 14° SE visible
19 Apr 10.7 20:58:20 10° W 21:08:32 31° SSW 21:09:58 31° SSW visible
20 Apr 11.6 01:47:54 14° SSE 01:47:54 14° SSE 01:51:16 10° SE visible
20 Apr 10.7 03:48:51 18° SSW 03:57:39 31° SSE 04:06:55 10° E visible
20 Apr 9.7 18:59:58 10° WNW 19:08:22 59° SSW 19:20:21 15° SE visible
20 Apr 11.0 21:11:29 10° WSW 21:21:13 26° SSW 21:21:16 26° SSW visible
21 Apr 11.4 01:59:15 18° SSE 01:59:15 18° SSE 02:05:11 10° SE visible
21 Apr 10.4 04:00:12 19° SSW 04:10:08 39° SSE 04:19:41 10° E visible
21 Apr 10.0 19:12:14 10° W 19:20:34 45° SSW 19:31:36 15° SE visible
21 Apr 11.1 21:24:58 10° WSW 21:32:33 21° SSW 21:32:33 21° SSW visible
22 Apr 11.2 02:10:38 23° SSE 02:10:38 23° SSE 02:18:57 10° ESE visible
22 Apr 10.1 04:11:35 20° SW 04:22:27 49° SSE 04:32:11 10° ENE visible
22 Apr 10.3 19:24:45 10° W 19:32:54 35° SSW 19:42:48 15° SSE visible
22 Apr 11.3 21:38:43 10° SW 21:43:44 17° SSW 21:43:44 17° SSW visible
23 Apr 11.0 02:22:02 28° SSE 02:22:02 28° SSE 02:32:26 10° ESE visible
23 Apr 9.9 04:22:59 20° SW 04:34:37 62° SSE 04:44:27 10° ENE visible
23 Apr 10.6 19:37:34 10° WSW 19:45:23 28° SSW 19:53:57 15° SSE visible
23 Apr 11.5 21:52:37 10° SW 21:54:52 13° SSW 21:54:52 13° SSW visible
24 Apr 10.8 02:33:26 34° SSE 02:33:55 34° SSE 02:45:35 10° E visible
24 Apr 9.7 04:34:23 19° SW 04:46:39 78° SE 04:56:28 10° ENE visible
24 Apr 10.8 19:50:42 10° WSW 19:58:01 22° SSW 20:05:02 15° SSE visible
25 Apr 10.6 02:44:50 41° SSE 02:46:24 41° SSE 02:58:26 10° E visible
25 Apr 9.6 04:45:47 18° SW 04:58:32 85° NW 05:08:19 10° NE visible
25 Apr 11.0 20:04:12 10° SW 20:10:47 18° SSW 20:16:03 14° SSE visible
